• In Hungary
  • List of Countries
  • For 7 days
  • Water Temperature
  • Satellite Maps
  • Weather Map
  • News
  • Weather Widgets
  • user-avatar
    Login

    Hourly Weather Strozewo

    Today, 21 September, Friday

    Time Temperature Precipitation Wind Pressure Humidity
    00:00 +21°C° 0 mm 3 mps 752 mmHg 65%
    01:00 +21°C° 0 mm 3 mps 752 mmHg 66%
    02:00 +21°C° 0 mm 3 mps 751 mmHg 67%
    03:00 +20°C° 0 mm 3 mps 751 mmHg 68%
    04:00 +20°C° 0 mm 3 mps 751 mmHg 69%
    05:00 +20°C° 0 mm 4 mps 750 mmHg 69%
    06:00 +20°C° 0 mm 4 mps 750 mmHg 69%
    07:00 +21°C° 0 mm 4 mps 750 mmHg 68%
    08:00 +23°C° 0 mm 5 mps 750 mmHg 62%
    09:00 +25°C° 0 mm 5 mps 749 mmHg 56%
    10:00 +27°C° 0 mm 6 mps 749 mmHg 50%
    11:00 +28°C° 0 mm 6 mps 748 mmHg 46%
    12:00 +29°C° 0 mm 7 mps 748 mmHg 42%
    13:00 +30°C° 0 mm 7 mps 747 mmHg 38%
    14:00 +30°C° 0 mm 7 mps 746 mmHg 38%
    15:00 +30°C° 0 mm 6 mps 746 mmHg 38%
    16:00 +29°C° 0 mm 6 mps 745 mmHg 38%
    17:00 +27°C° 0.7 mm 6 mps 746 mmHg 48%
    18:00 +23°C° 0.7 mm 7 mps 746 mmHg 58%
    19:00 +20°C° 0.7 mm 7 mps 746 mmHg 68%
    20:00 +17°C° 1 mm 7 mps 747 mmHg 71%
    21:00 +16°C° 1 mm 6 mps 748 mmHg 74%
    22:00 +14°C° 1 mm 6 mps 749 mmHg 77%
    23:00 +13°C° 0.2 mm 5 mps 750 mmHg 76%

    Tomorrow, 22 September, Saturday

    Time Temperature Precipitation Wind Pressure Humidity
    00:00 +13°C° 0.2 mm 4 mps 750 mmHg 75%
    01:00 +13°C° 0.2 mm 4 mps 751 mmHg 74%
    02:00 +12°C° 0 mm 4 mps 751 mmHg 72%
    03:00 +12°C° 0 mm 4 mps 751 mmHg 70%
    04:00 +10°C° 0 mm 5 mps 751 mmHg 68%
    05:00 +10°C° 0 mm 5 mps 752 mmHg 67%
    06:00 +10°C° 0 mm 6 mps 752 mmHg 67%
    07:00 +10°C° 0 mm 6 mps 752 mmHg 66%
    08:00 +11°C° 0 mm 6 mps 752 mmHg 64%
    09:00 +13°C° 0 mm 6 mps 753 mmHg 62%
    10:00 +14°C° 0 mm 7 mps 753 mmHg 59%
    11:00 +14°C° 0.1 mm 7 mps 753 mmHg 57%
    12:00 +15°C° 0.1 mm 6 mps 753 mmHg 54%
    13:00 +16°C° 0.1 mm 6 mps 753 mmHg 52%
    14:00 +16°C° 0.4 mm 6 mps 753 mmHg 53%
    15:00 +15°C° 0.4 mm 6 mps 753 mmHg 55%
    16:00 +15°C° 0.4 mm 6 mps 753 mmHg 56%
    17:00 +14°C° 0.2 mm 5 mps 753 mmHg 62%
    18:00 +13°C° 0.2 mm 5 mps 753 mmHg 68%
    19:00 +12°C° 0.2 mm 4 mps 753 mmHg 74%
    20:00 +11°C° 0 mm 4 mps 753 mmHg 74%
    21:00 +11°C° 0 mm 4 mps 754 mmHg 74%
    22:00 +11°C° 0 mm 4 mps 754 mmHg 74%
    23:00 +9°C° 0 mm 5 mps 754 mmHg 74%

    Day after tomorrow, 23 September, Sunday

    Time Temperature Precipitation Wind Pressure Humidity
    00:00 +9°C° 0 mm 5 mps 754 mmHg 74%
    01:00 +9°C° 0 mm 5 mps 754 mmHg 74%
    02:00 +8°C° 0 mm 5 mps 754 mmHg 75%
    03:00 +8°C° 0 mm 5 mps 754 mmHg 76%
    04:00 +8°C° 0 mm 5 mps 754 mmHg 76%
    05:00 +8°C° 0 mm 5 mps 754 mmHg 76%
    06:00 +8°C° 0 mm 5 mps 755 mmHg 76%
    07:00 +8°C° 0 mm 5 mps 755 mmHg 75%
    08:00 +9°C° 0 mm 5 mps 755 mmHg 70%
    09:00 +12°C° 0 mm 5 mps 755 mmHg 65%
    10:00 +13°C° 0 mm 6 mps 755 mmHg 60%
    11:00 +14°C° 0 mm 5 mps 755 mmHg 55%
    12:00 +15°C° 0 mm 5 mps 754 mmHg 50%
    13:00 +16°C° 0 mm 5 mps 754 mmHg 46%
    14:00 +15°C° 0 mm 5 mps 753 mmHg 47%
    15:00 +15°C° 0 mm 4 mps 753 mmHg 49%
    16:00 +16°C° 0 mm 3 mps 752 mmHg 50%
    17:00 +14°C° 0.3 mm 3 mps 752 mmHg 59%
    18:00 +12°C° 0.3 mm 3 mps 751 mmHg 67%
    19:00 +12°C° 0.3 mm 2 mps 750 mmHg 76%
    20:00 +11°C° 1.7 mm 3 mps 749 mmHg 80%
    21:00 +11°C° 1.7 mm 3 mps 748 mmHg 84%
    22:00 +11°C° 1.7 mm 4 mps 747 mmHg 89%
    23:00 +11°C° 2.2 mm 4 mps 745 mmHg 90%

    24 September, Monday

    Time Temperature Precipitation Wind Pressure Humidity
    00:00 +10°C° 2.2 mm 5 mps 743 mmHg 92%
    01:00 +12°C° 2.2 mm 5 mps 741 mmHg 93%
    02:00 +12°C° 4.5 mm 5 mps 739 mmHg 94%
    03:00 +13°C° 4.5 mm 4 mps 737 mmHg 95%
    04:00 +14°C° 4.5 mm 4 mps 735 mmHg 96%
    05:00 +14°C° 1.4 mm 5 mps 734 mmHg 92%
    06:00 +14°C° 1.4 mm 7 mps 733 mmHg 88%
    07:00 +15°C° 1.4 mm 8 mps 732 mmHg 84%
    08:00 +12°C° 0.5 mm 9 mps 734 mmHg 84%
    09:00 +11°C° 0.5 mm 10 mps 735 mmHg 83%
    10:00 +9°C° 0.5 mm 11 mps 737 mmHg 83%
    11:00 +9°C° 1 mm 11 mps 740 mmHg 82%
    12:00 +8°C° 1 mm 11 mps 742 mmHg 81%
    13:00 +8°C° 1 mm 11 mps 745 mmHg 80%
    14:00 +8°C° 0.8 mm 11 mps 747 mmHg 78%
    15:00 +8°C° 0.8 mm 11 mps 749 mmHg 76%
    16:00 +8°C° 0.8 mm 10 mps 751 mmHg 74%
    17:00 +7°C° 0 mm 9 mps 752 mmHg 72%
    18:00 +8°C° 0 mm 7 mps 754 mmHg 70%
    19:00 +7°C° 0 mm 6 mps 755 mmHg 68%
    20:00 +7°C° 0 mm 5 mps 756 mmHg 68%
    21:00 +7°C° 0 mm 5 mps 757 mmHg 68%
    22:00 +6°C° 0 mm 5 mps 758 mmHg 68%
    23:00 +6°C° 0 mm 5 mps 759 mmHg 67%

    25 September, Tuesday

    Time Temperature Precipitation Wind Pressure Humidity
    00:00 +6°C° 0 mm 5 mps 759 mmHg 66%
    01:00 +6°C° 0 mm 5 mps 760 mmHg 66%
    02:00 +6°C° 0 mm 5 mps 761 mmHg 66%
    03:00 +6°C° 0 mm 5 mps 762 mmHg 66%
    04:00 +6°C° 0 mm 5 mps 762 mmHg 66%
    05:00 +6°C° 0 mm 5 mps 763 mmHg 66%
    06:00 +6°C° 0 mm 5 mps 763 mmHg 66%
    07:00 +6°C° 0 mm 5 mps 763 mmHg 66%
    08:00 +8°C° 0 mm 6 mps 763 mmHg 62%
    09:00 +9°C° 0 mm 7 mps 764 mmHg 58%
    10:00 +11°C° 0 mm 8 mps 764 mmHg 54%
    11:00 +11°C° 0 mm 8 mps 763 mmHg 54%
    12:00 +12°C° 0 mm 8 mps 763 mmHg 53%
    13:00 +12°C° 0 mm 8 mps 762 mmHg 53%
    14:00 +11°C° 0.3 mm 8 mps 762 mmHg 59%
    15:00 +11°C° 0.3 mm 9 mps 761 mmHg 65%
    16:00 +10°C° 0.3 mm 9 mps 760 mmHg 72%
    17:00 +10°C° 1.4 mm 9 mps 760 mmHg 75%
    18:00 +10°C° 1.4 mm 9 mps 760 mmHg 79%
    19:00 +8°C° 1.4 mm 9 mps 759 mmHg 83%
    20:00 +9°C° 2 mm 8 mps 759 mmHg 83%
    21:00 +9°C° 2 mm 6 mps 759 mmHg 84%
    22:00 +8°C° 2 mm 5 mps 759 mmHg 84%
    23:00 +8°C° 0.1 mm 5 mps 760 mmHg 83%

    26 September, Wednesday

    Time Temperature Precipitation Wind Pressure Humidity
    00:00 +7°C° 0.1 mm 4 mps 760 mmHg 83%
    01:00 +7°C° 0.1 mm 4 mps 760 mmHg 82%
    02:00 +7°C° 0 mm 4 mps 761 mmHg 83%
    03:00 +7°C° 0 mm 3 mps 761 mmHg 83%
    04:00 +7°C° 0 mm 3 mps 762 mmHg 84%
    05:00 +7°C° 0 mm 3 mps 762 mmHg 83%
    06:00 +7°C° 0 mm 3 mps 763 mmHg 82%
    07:00 +7°C° 0 mm 3 mps 763 mmHg 80%
    08:00 +9°C° 0 mm 3 mps 763 mmHg 72%
    09:00 +11°C° 0 mm 3 mps 764 mmHg 63%
    10:00 +13°C° 0 mm 3 mps 764 mmHg 54%
    11:00 +14°C° 0 mm 4 mps 764 mmHg 55%
    12:00 +14°C° 0 mm 4 mps 764 mmHg 55%
    13:00 +15°C° 0 mm 4 mps 764 mmHg 55%
    14:00 +15°C° 0.1 mm 4 mps 764 mmHg 60%
    15:00 +14°C° 0.1 mm 4 mps 763 mmHg 66%
    16:00 +14°C° 0.1 mm 4 mps 763 mmHg 71%
    17:00 +13°C° 0 mm 3 mps 763 mmHg 75%
    18:00 +12°C° 0 mm 3 mps 763 mmHg 80%
    19:00 +12°C° 0 mm 3 mps 764 mmHg 84%
    20:00 +12°C° 0 mm 2 mps 764 mmHg 87%
    21:00 +10°C° 0 mm 2 mps 764 mmHg 89%
    22:00 +10°C° 0 mm 2 mps 764 mmHg 92%
    23:00 +9°C° 0 mm 2 mps 763 mmHg 92%
    Show more